GFSSE_con_mlcape_021.txt.gz
CAPE
0 0 12 23 0 0 0 0 0 0 0 0 0 0 0 0 0 0 0 0 0 0 0 0 0 0 0 0 0 0 0 4 288 403 377 426 347 391 327 375 327 628 576
0 0 12 48 0 0 0 0 0 0 0 0 0 0 0 0 0 0 0 0 0 0 0 0 0 0 0 0 0 0 0 0 124 359 505 291 454 264 368 417 398 678 597
0 0 29 10 0 0 0 0 0 0 0 0 0 0 0 0 0 0 0 0 0 0 0 0 0 0 0 2 9 0 2 0 0 317 465 384 344 159 286 484 524 634 297
0 0 0 0 0 0 0 0 0 0 1 2 1 23 46 63 10 0 0 1 4 4 7 4 0 1 0 0 23 35 0 0 0 245 338 338 243 180 221 695 482 177 300
0 0 0 9 0 0 48 45 46 59 92 208 308 329 144 178 54 0 0 0 7 24 15 10 13 4 2 0 5 104 0 0 0 67 170 286 248 209 194 529 583 579 673
0 0 0 25 46 141 160 87 114 206 264 410 518 599 239 154 97 57 58 45 61 45 19 16 13 26 5 0 0 18 76 4 0 0 71 243 275 262 184 218 385 674 490
0 1 19 133 221 264 212 104 136 186 146 630 748 626 379 211 101 42 37 49 77 50 17 21 21 29 68 37 5 62 16 24 0 0 16 181 272 264 291 337 308 144 99
0 9 56 324 320 324 295 329 455 319 457 928 615 276 153 72 66 57 44 28 19 25 26 39 44 47 62 59 56 128 64 129 22 0 41 132 249 358 327 259 371 230 333
0 20 128 421 423 356 299 498 367 400 409 56 27 0 0 1 2 0 0 2 7 21 32 57 35 36 35 61 69 123 70 189 129 0 2 184 287 352 439 269 374 208 135
0 77 197 197 295 258 292 313 94 71 11 11 0 0 0 0 10 13 5 5 9 4 10 22 23 9 63 71 103 97 138 248 212 121 0 205 465 483 573 340 272 137 38
0 14 21 2 25 12 10 22 96 92 73 5 0 0 0 0 0 0 0 0 2 20 63 49 24 54 87 100 130 214 167 223 196 240 87 305 647 558 597 595 215 25 130
0 0 0 0 0 0 0 0 0 7 17 22 21 0 0 0 0 0 0 0 2 6 27 90 75 123 160 131 162 252 107 193 225 216 152 317 643 701 733 660 186 274 124
0 0 0 0 0 0 0 0 0 4 0 0 0 0 0 0 0 0 0 0 0 0 0 0 7 141 173 136 126 67 54 191 233 307 317 569 752 856 709 765 455 338 258
0 0 0 0 0 0 0 0 0 0 0 0 0 0 0 0 0 0 0 0 0 0 0 0 0 54 183 182 164 38 0 67 282 405 334 763 724 891 839 755 613 318 171
0 0 0 0 0 0 0 0 0 0 0 0 0 0 0 0 0 0 0 0 0 0 0 0 0 6 96 130 75 20 0 0 271 403 356 796 915 875 844 802 642 340 239
0 0 0 0 0 0 0 0 2 0 0 0 0 0 0 0 0 0 1 2 0 0 0 0 0 35 117 80 190 88 0 0 204 333 384 712 1051 802 889 776 700 491 276
0 0 0 0 0 12 0 0 0 0 0 0 0 0 0 0 0 0 0 0 0 0 0 0 0 25 69 132 89 5 0 0 179 334 375 740 898 896 828 722 572 454 320
0 0 0 2 8 0 0 1 0 0 0 0 0 0 0 0 0 0 0 0 0 0 0 0 0 12 113 110 93 90 47 6 376 363 598 785 867 851 714 763 499 411 194
0 0 0 0 0 0 0 0 0 0 0 0 0 0 0 0 0 0 0 0 0 0 0 0 0 29 67 114 114 151 38 296 530 558 641 678 745 737 673 626 493 343 186
0 0 0 0 0 0 0 0 0 0 0 0 0 0 1 4 0 0 0 0 0 0 0 0 0 31 97 127 114 82 132 190 376 510 583 646 584 566 458 445 348 198 166
0 0 0 0 0 0 3 28 37 54 0 0 0 0 15 14 0 0 0 0 0 0 0 0 0 40 60 67 59 77 123 80 187 453 338 418 452 404 353 300 194 174 116
1 0 0 0 0 18 161 12 71 13 0 0 0 0 5 21 6 2 0 9 0 0 0 0 0 15 23 35 25 22 15 48 141 346 505 450 398 201 193 173 142 121 73
0 0 0 0 4 185 32 6 3 0 0 0 0 0 0 18 27 17 0 0 1 0 0 0 0 4 25 7 11 3 9 5 84 170 219 423 335 182 101 73 85 65 27
0 0 0 0 69 107 52 9 0 0 0 0 0 0 0 12 33 21 47 16 0 0 0 0 0 19 26 18 29 59 17 56 20 57 132 191 201 109 67 57 20 8 20
0 0 0 4 137 71 59 4 0 0 0 0 0 0 0 1 27 49 0 0 0 0 7 0 0 1 9 25 53 37 26 62 51 26 19 50 94 38 26 17 1 1 12
0 0 0 30 92 65 37 0 0 0 0 0 0 0 0 5 21 29 23 1 0 3 0 0 0 1 5 25 31 23 52 57 64 74 85 22 17 3 2 2 3 2 5

GFSSE_con_mlcape_024.txt.gz
CAPE
0 0 20 62 0 0 0 0 0 0 0 0 0 0 0 0 0 0 0 0 0 0 0 0 0 0 0 0 0 0 0 0 117 521 470 372 430 418 409 369 802 636 543
0 0 12 67 0 0 0 0 0 0 0 0 0 0 0 0 0 0 0 0 0 0 0 0 0 0 0 0 0 0 0 0 0 279 497 419 418 448 429 508 678 748 539
0 0 35 42 0 0 0 0 0 0 0 0 0 0 0 0 0 0 0 0 0 0 0 0 0 0 0 0 3 3 0 0 0 50 444 448 469 563 541 509 793 815 609
0 0 2 21 0 0 0 0 0 0 0 0 0 0 0 0 0 0 0 3 9 8 8 2 0 0 0 0 0 33 3 0 0 0 239 443 287 556 525 684 892 857 582
0 0 0 22 24 24 10 0 0 4 0 0 0 0 30 56 133 79 0 0 3 18 23 36 13 13 0 1 0 2 83 1 0 0 36 217 332 452 462 384 655 782 671
0 17 9 62 61 53 38 67 100 90 104 170 239 189 302 217 120 65 51 15 3 6 23 33 22 12 7 1 0 0 2 49 0 0 0 114 389 391 550 522 417 363 613
11 25 47 117 76 136 152 229 247 196 258 323 376 393 550 403 219 88 94 85 19 6 37 16 19 13 12 37 12 0 1 80 37 0 0 0 307 374 457 566 425 295 213
0 25 71 203 241 216 259 480 476 338 376 430 507 757 502 253 252 142 73 65 62 36 16 27 31 34 45 47 66 25 0 84 67 0 0 0 132 437 474 414 344 297 227
0 0 28 178 346 331 527 697 534 381 427 468 510 452 74 101 36 21 8 2 6 14 22 36 36 36 38 32 48 57 72 60 26 6 0 0 105 421 544 413 330 373 105
0 0 0 109 407 572 735 777 599 680 769 576 410 256 81 0 11 17 5 0 3 8 15 14 13 2 4 24 24 52 73 79 46 46 1 0 10 485 622 450 396 446 155
0 19 50 120 321 418 544 621 781 632 492 328 347 165 30 0 0 0 0 0 0 2 12 24 18 3 14 19 0 34 113 58 64 82 53 4 59 677 607 730 456 343 139
0 3 78 122 287 246 282 130 273 160 121 238 92 1 17 0 0 0 0 0 0 1 6 10 60 73 34 24 18 98 119 53 44 98 125 172 93 746 798 755 506 219 1
0 0 26 121 116 28 1 0 0 0 0 1 15 2 0 0 0 0 0 0 0 0 0 0 0 0 52 47 48 72 73 45 22 88 195 162 133 646 845 855 740 240 16
0 0 0 33 2 0 0 0 0 0 0 0 0 0 0 0 0 0 0 0 0 0 0 0 0 0 8 90 72 59 0 7 13 50 207 142 443 667 908 1010 964 386 172
0 0 0 0 0 0 0 0 0 0 0 0 0 0 0 0 0 0 0 0 0 0 0 0 0 0 0 30 37 24 0 0 0 122 248 113 495 650 927 994 939 602 167
0 0 0 0 0 0 0 0 0 0 0 0 0 0 0 0 0 0 0 0 0 0 0 0 0 0 0 0 46 31 0 0 0 47 246 113 536 692 906 948 743 707 434
0 0 0 0 0 0 0 0 0 0 0 0 0 0 0 0 0 0 0 0 0 0 0 0 0 0 0 15 30 45 13 0 0 32 255 227 387 724 783 1023 887 760 491
0 0 0 0 0 0 0 0 0 0 0 0 0 0 0 0 0 0 0 0 0 0 0 0 0 0 0 20 57 44 13 3 5 21 307 301 574 845 754 755 844 679 472
0 0 0 0 0 0 0 0 0 0 0 0 0 0 0 0 0 3 0 0 0 0 0 0 0 0 0 25 56 66 88 75 95 452 392 502 799 831 813 727 571 546 411
0 0 0 0 0 0 0 0 0 2 0 0 0 0 0 0 0 0 0 0 0 0 0 0 0 0 0 51 112 114 111 123 308 431 537 607 728 715 630 564 547 428 307
0 0 0 0 0 0 0 3 11 7 0 0 0 0 0 0 0 0 0 0 0 0 0 0 0 0 44 58 72 167 166 206 155 341 687 537 471 578 531 524 501 369 256
0 0 0 0 0 0 1 7 4 0 0 0 0 0 0 0 0 0 0 0 0 0 0 0 0 0 37 47 69 55 61 130 182 352 398 422 377 397 311 355 328 297 209
0 0 0 0 0 2 7 0 0 0 0 0 0 0 0 0 8 12 5 0 0 0 0 0 0 0 31 36 25 33 41 0 140 211 182 233 232 228 169 197 203 155 132
0 0 0 0 0 13 0 0 0 0 0 0 0 0 0 0 1 2 1 0 0 0 0 0 0 6 27 36 18 54 23 79 43 25 151 238 173 143 102 167 121 68 8
0 0 0 0 2 0 12 0 0 0 0 0 0 0 0 0 3 6 8 0 0 0 0 0 0 8 25 14 5 46 61 53 47 37 29 90 172 82 59 19 54 61 7
0 0 0 0 9 4 1 0 0 0 0 0 0 0 0 1 9 8 0 0 0 0 0 0 1 3 6 15 27 66 87 89 56 34 37 53 81 49 49 38 30 24 4

GFSSE_con_mlcape_030.txt.gz
CAPE
0 40 11 0 0 0 0 0 0 0 0 0 0 0 0 0 0 0 0 0 0 0 0 0 0 0 0 0 0 0 0 0 27 518 817 734 757 820 602 1007 952 741 505
0 32 25 0 0 0 0 0 0 0 0 0 0 0 0 0 0 0 0 0 0 0 0 0 0 0 0 0 0 0 0 0 0 64 606 688 812 864 788 819 785 749 516
0 34 87 12 0 0 0 0 0 0 0 0 0 0 0 0 0 0 0 0 0 0 0 0 0 0 0 0 0 0 0 0 0 0 198 867 839 709 941 831 732 810 562
0 40 103 70 0 0 0 0 0 0 0 0 0 0 0 0 0 0 0 0 0 0 0 0 0 2 2 0 0 0 8 0 0 0 0 390 1042 931 832 996 885 827 657
0 48 166 120 13 0 0 0 0 0 0 0 0 0 0 0 0 0 8 16 5 1 0 0 0 1 50 46 19 0 0 109 0 0 0 2 698 952 1029 993 896 772 563
2 46 182 173 18 2 0 0 9 22 16 15 19 19 39 41 42 117 133 213 186 18 1 0 0 7 149 0 6 82 0 0 161 0 0 0 254 878 1038 1082 853 740 464
21 32 257 255 84 68 12 0 25 68 114 91 55 115 212 231 289 425 515 400 291 189 174 86 7 22 51 27 7 22 135 0 0 5 11 0 0 719 909 1141 978 633 442
29 77 275 603 268 171 140 60 66 100 155 147 127 255 318 455 668 691 630 395 294 243 205 203 126 93 41 51 42 57 87 48 9 0 36 6 0 119 721 978 935 498 368
78 110 303 637 552 430 430 361 246 231 244 251 356 413 508 638 939 711 384 292 125 64 77 86 121 113 79 105 69 70 104 93 16 43 53 25 0 0 384 956 782 578 313
132 156 182 512 580 622 671 859 559 440 449 546 624 744 761 933 819 411 227 19 11 27 9 20 40 50 50 60 16 45 66 92 36 35 38 40 4 0 144 820 915 632 346
60 172 155 330 422 581 572 708 943 941 985 986 881 812 739 387 172 201 117 38 71 17 6 1 3 10 24 0 0 0 24 12 36 48 33 62 0 0 0 772 911 478 497
82 103 162 310 456 598 439 563 1174 713 723 600 617 752 706 377 267 193 99 54 71 9 0 0 0 6 18 77 70 28 5 20 49 50 48 49 15 70 0 534 895 555 590
40 73 121 378 535 680 546 661 903 816 653 671 820 722 468 344 241 276 251 166 248 86 21 13 18 8 12 35 113 23 31 22 40 65 50 33 51 200 54 262 826 728 523
4 57 151 266 658 878 605 675 705 532 449 401 329 452 535 457 370 335 251 166 140 29 21 22 10 33 29 29 78 44 42 43 60 72 98 41 63 172 97 230 763 847 685
4 44 132 331 716 976 946 714 567 290 156 187 186 290 471 324 319 357 332 255 152 23 9 26 19 21 32 35 47 78 74 45 47 73 130 91 94 93 12 284 833 936 892
36 26 96 347 745 975 1044 677 431 306 186 267 111 258 477 403 348 392 329 295 155 43 59 61 34 34 35 31 75 112 42 80 111 109 138 90 67 13 3 203 845 1006 836
43 24 74 286 695 955 836 593 325 236 254 135 187 512 535 562 423 431 310 291 222 177 200 189 38 56 65 61 78 119 99 114 83 109 52 4 216 58 0 337 857 1064 921
21 31 55 108 503 776 561 405 223 229 222 162 330 464 613 637 668 510 318 242 178 222 308 254 47 49 23 67 61 95 141 130 112 51 0 6 362 69 293 458 730 982 958
4 17 4 33 339 534 417 298 311 333 233 231 413 485 484 628 567 449 309 215 370 200 180 128 73 68 79 93 126 170 272 149 84 0 15 135 580 226 714 933 593 699 943
0 0 0 3 193 336 354 314 266 209 177 338 488 449 518 664 537 371 389 395 257 147 167 137 87 156 103 118 171 259 183 129 26 96 466 648 683 829 1121 1084 1033 820 714
0 0 0 46 264 226 231 152 142 75 172 438 478 568 532 540 407 320 414 329 208 174 141 89 168 177 156 226 258 275 285 378 456 762 700 835 969 1069 1342 1074 1151 1095 514
0 0 37 142 310 208 177 129 95 204 379 409 445 480 493 518 346 423 339 269 171 66 121 159 194 181 135 367 236 239 69 372 492 779 779 928 1063 1187 1201 1102 1146 790 230
0 38 78 220 275 196 222 237 486 458 324 249 322 350 489 426 321 410 296 254 9 103 178 259 280 175 251 425 436 312 147 84 92 799 792 848 1083 1171 1142 1203 868 690 433
15 33 141 199 259 273 258 225 255 102 54 145 73 209 273 306 311 335 349 201 167 216 280 306 274 274 409 414 474 426 472 284 22 371 695 811 1061 1056 1067 1268 907 714 523
4 46 138 197 117 270 349 291 236 91 130 112 61 272 483 465 329 282 304 338 262 363 404 256 204 360 453 581 381 505 409 631 712 500 315 638 898 934 837 1010 656 471 368
6 37 110 100 261 324 442 422 230 291 164 195 271 354 366 428 366 349 328 352 409 409 291 267 333 422 456 586 617 585 497 710 711 563 341 392 520 448 556 553 322 153 110

GFSSE_con_mlcape_033.txt.gz
CAPE
0 134 0 0 0 0 0 0 0 0 0 0 0 0 0 0 0 0 0 0 0 0 0 0 0 0 0 0 0 0 0 0 34 404 804 815 849 736 801 1199 863 779 439
0 232 0 0 0 0 0 0 0 0 0 0 0 0 0 0 0 0 0 0 0 0 0 0 0 0 0 0 0 0 0 0 0 14 366 790 687 764 798 1258 936 887 510
0 297 1 4 0 0 0 0 0 0 0 0 0 0 0 0 0 0 0 0 0 0 0 0 0 0 0 0 0 0 0 0 0 0 1 507 868 687 817 757 761 798 520
0 334 26 34 1 0 0 0 0 0 0 0 0 0 0 0 0 0 0 0 0 0 0 0 0 0 3 4 0 0 0 13 0 0 0 11 473 1005 614 819 640 834 614
0 306 139 82 12 0 0 0 0 0 0 0 0 0 0 0 5 5 10 23 35 0 0 1 2 3 1 35 42 18 0 0 96 0 0 0 0 832 909 612 624 902 699
0 108 328 190 26 0 0 0 0 0 0 0 0 0 2 17 16 13 26 46 103 156 66 11 22 3 1 150 7 12 75 0 0 0 0 0 0 305 608 740 495 835 591
15 27 363 262 37 13 7 0 0 0 0 0 0 30 80 150 161 216 318 402 422 296 230 211 177 142 67 135 78 24 46 94 0 0 1 0 0 1 555 765 773 652 654
3 16 101 397 203 73 57 66 16 13 30 62 90 76 212 235 383 559 715 702 530 308 342 194 212 160 162 134 65 86 38 24 49 7 0 26 8 3 277 732 660 680 571
11 44 36 1026 569 257 220 217 148 58 78 154 145 167 290 333 570 803 969 689 390 252 103 65 88 112 130 109 119 122 111 79 6 26 38 7 33 0 0 75 783 715 587
80 53 77 304 1005 711 416 763 492 185 163 226 233 295 442 615 616 626 532 328 102 84 77 42 20 41 76 84 68 158 85 115 5 13 37 90 99 0 0 154 933 716 553
51 86 115 107 332 568 366 650 1009 766 456 498 476 556 673 357 325 597 688 414 284 185 82 45 22 4 0 16 20 12 23 0 3 19 23 57 154 26 0 0 921 834 574
86 94 107 169 238 417 351 499 1202 612 483 474 516 507 955 1015 523 413 392 231 165 127 67 26 1 0 0 0 0 12 0 0 3 22 43 46 44 35 0 0 656 790 721
9 68 94 301 373 524 489 450 950 951 639 771 772 979 1009 689 289 419 509 515 320 408 381 183 71 76 14 2 15 47 128 18 13 39 58 67 44 19 61 33 293 874 654
0 95 55 188 601 820 638 469 672 928 827 702 728 1019 977 607 538 662 528 424 466 339 370 124 14 27 23 17 15 35 113 109 89 44 165 52 16 11 41 125 152 881 850
0 0 27 175 772 1109 1164 608 735 848 618 595 485 474 617 475 557 642 590 605 444 466 276 103 19 61 25 21 19 35 162 152 174 157 159 49 5 0 29 114 214 992 1000
0 2 40 217 869 1180 1333 1350 1058 1040 524 364 307 318 439 664 645 635 617 569 471 480 350 235 5 21 26 25 47 47 89 108 81 166 95 240 27 13 16 57 124 1025 1111
0 0 65 297 962 1339 1515 1483 1172 727 461 293 369 307 439 792 793 767 509 564 531 489 458 442 294 163 51 50 35 31 76 102 66 134 61 102 255 60 17 8 31 1023 1199
0 0 198 153 760 1296 1522 1497 985 461 475 261 285 333 697 889 880 715 670 614 502 540 514 380 149 165 79 31 62 99 200 212 183 248 193 47 34 556 209 0 44 926 1174
0 57 261 344 538 1143 1485 1203 786 549 445 345 346 389 557 809 747 801 789 601 523 574 383 297 112 323 49 70 235 148 217 234 174 217 140 11 27 338 276 273 521 683 1108
23 204 406 390 479 1134 1138 844 462 443 475 295 355 489 616 736 718 824 799 662 599 549 400 133 102 209 114 161 140 189 252 194 176 146 42 60 101 381 261 818 1135 720 934
101 305 325 285 567 938 689 440 347 334 386 278 432 547 752 742 719 750 845 611 591 440 350 228 292 183 163 367 298 335 362 365 94 163 298 144 437 598 389 1113 1246 1021 927
202 250 255 287 574 617 476 371 242 303 209 478 466 660 746 604 581 793 667 570 579 401 259 151 189 266 190 328 220 243 117 115 99 196 584 549 620 612 885 1121 1428 1426 1165
252 305 320 458 616 479 392 344 459 556 588 399 297 457 653 572 632 635 654 645 501 413 126 183 231 231 250 289 443 360 193 55 38 312 594 597 690 882 1123 1328 1445 1179 900
321 348 462 573 533 358 433 400 429 216 160 270 370 124 565 440 436 454 454 522 313 155 255 366 369 341 317 378 379 466 411 382 105 181 730 716 749 1068 1329 1269 1150 1044 433
314 362 533 543 420 491 387 333 449 207 50 144 119 366 600 742 717 505 418 355 397 403 479 532 432 319 388 544 459 334 653 476 208 163 270 591 759 1057 1248 1300 1066 890 906
294 420 467 469 419 448 335 451 505 287 290 226 348 493 770 904 821 557 248 337 436 547 545 379 332 371 588 633 512 370 445 689 425 713 474 459 733 770 939 860 624 132 156